Temperature
19 19 19 19 19 19 19 19 19 19 19 19 19 19 19 19 19 19 19 19 19 19 19 19 19 19 19 18 18 18 18 18 18 18 18 18 18 18 18 18 18 18 18
20 19 19 19 19 19 19 19 19 19 19 19 19 19 19 19 19 19 19 19 19 19 19 19 19 19 18 18 18 18 18 18 18 18 18 18 18 18 18 18 18 18 18
20 20 19 19 19 19 19 19 19 19 19 19 19 19 19 19 19 19 19 19 19 19 19 19 19 18 18 18 18 18 18 18 18 18 18 18 18 18 18 18 18 18 17
20 20 20 20 20 19 19 19 19 19 19 19 19 19 19 19 19 19 19 19 19 19 19 19 19 18 18 18 18 18 18 18 18 18 18 18 18 18 18 18 18 17 17
20 20 20 20 20 20 19 19 19 19 19 19 19 19 19 19 19 19 19 19 18 18 18 19 18 18 18 18 18 18 18 18 18 18 18 18 17 18 18 18 17 17 17
20 20 20 20 20 20 20 19 19 19 19 19 19 19 19 19 19 19 19 19 18 18 18 18 18 18 18 18 18 18 18 18 18 18 18 18 17 17 17 17 17 17 17
20 20 20 20 20 20 20 19 19 19 19 19 19 19 19 19 19 19 19 19 18 19 18 18 18 18 18 18 18 18 18 18 18 18 18 18 17 17 17 17 17 17 17
20 20 20 20 20 20 19 19 19 19 19 19 19 19 19 19 19 19 18 18 18 18 18 18 18 18 18 18 18 18 18 18 18 18 18 18 17 17 17 17 17 17 17
20 20 20 20 20 19 19 19 19 19 19 19 19 19 19 19 19 19 19 18 18 18 18 18 18 18 18 18 18 18 18 18 18 18 18 18 17 17 17 17 17 17 17
20 20 20 20 20 19 19 19 19 19 19 19 19 19 19 19 19 19 19 19 18 18 18 18 18 18 18 18 18 18 18 18 18 18 18 18 17 17 17 17 17 17 17
20 20 20 20 20 20 20 19 19 19 19 19 19 19 19 19 19 19 19 18 18 18 18 18 18 18 18 18 18 18 18 18 18 18 18 18 17 17 17 17 17 17 17
20 20 20 20 20 20 19 19 19 19 19 19 19 19 19 19 19 19 19 18 18 18 18 18 18 18 18 18 18 18 18 18 18 18 18 18 17 17 17 17 17 17 17
20 20 20 20 20 19 19 19 19 19 19 19 19 19 19 19 19 19 18 18 18 18 18 18 18 18 18 18 18 18 18 18 18 18 18 18 17 17 17 17 17 17 17
20 20 20 20 20 20 20 19 19 19 19 19 19 19 19 19 19 19 18 18 18 18 18 18 18 18 18 18 18 18 18 18 18 18 18 18 18 17 17 17 17 17 17
21 20 20 20 20 20 20 19 19 19 19 19 19 19 19 19 19 18 18 18 18 18 18 18 18 18 18 18 18 18 18 18 18 18 18 18 18 17 17 17 17 17 17
21 21 20 20 20 20 20 20 19 19 19 19 19 19 19 19 19 18 18 18 18 18 18 18 18 18 18 18 18 18 18 18 18 18 18 18 17 17 17 17 17 17 17
21 21 21 20 20 20 20 20 19 19 19 19 19 19 19 19 19 18 18 18 18 18 18 18 18 18 18 18 18 18 18 18 18 18 18 18 17 17 17 17 17 17 17
21 21 21 20 20 20 20 20 20 19 19 19 19 19 19 19 18 18 18 18 18 18 18 18 18 18 18 18 18 18 18 18 18 18 17 17 17 17 17 17 17 17 17
21 21 21 21 20 20 20 20 20 19 19 19 19 19 19 19 18 18 18 18 18 18 18 18 18 18 18 18 18 18 18 18 18 17 17 17 17 17 17 17 17 17 17
21 21 21 21 20 20 20 20 19 19 19 19 19 19 19 19 18 18 18 18 18 18 18 18 17 18 18 17 17 17 17 17 17 17 17 17 17 17 17 17 17 17 17
21 21 21 21 20 20 20 19 19 19 19 19 19 19 19 18 18 18 18 18 18 18 18 18 17 17 17 17 17 17 17 17 17 17 17 17 17 17 17 17 17 17 17
21 21 21 21 20 20 20 20 19 19 19 19 19 19 19 18 18 18 18 18 18 18 18 18 18 17 17 17 17 17 17 17 17 17 17 17 17 17 17 17 17 17 17
21 21 21 21 20 20 20 19 19 19 19 19 19 19 19 18 18 18 18 18 18 18 18 18 17 17 17 17 17 17 17 17 17 17 17 17 17 17 17 17 17 17 17
22 21 21 21 20 20 20 19 19 19 19 19 19 19 18 18 18 18 18 18 18 18 18 18 17 17 17 17 17 17 17 17 16 16 17 17 17 17 17 17 17 17 17
22 21 21 21 20 20 19 19 19 19 19 19 19 19 18 18 18 18 18 18 18 18 17 17 17 17 17 17 17 17 17 16 16 16 16 17 17 17 17 17 17 17 17
22 21 21 21 20 20 20 19 19 19 19 19 19 19 18 18 18 18 18 18 18 18 17 17 17 17 17 17 17 17 16 16 16 16 16 16 16 17 17 17 17 17 17
Wind_Speed
2 3 6 8 9 10 11 11 12 12 13 13 13 13 13 14 14 13 13 13 13 13 13 13 13 14 14 13 12 12 12 12 11 11 10 10 10 10 10 10 11 10 11
4 4 7 8 9 10 11 11 12 12 13 13 13 13 13 13 13 13 12 12 12 12 13 13 12 13 13 12 12 12 11 11 10 10 9 8 9 9 9 10 10 9 11
4 4 7 8 9 10 11 11 11 12 12 12 12 12 12 12 12 12 12 11 11 12 12 12 12 12 12 12 12 11 11 10 10 9 8 6 7 8 9 10 10 10 11
5 5 6 8 9 9 10 11 12 12 12 12 12 11 11 11 12 12 11 11 11 11 11 11 11 11 11 11 11 11 10 9 9 8 6 6 6 7 9 9 9 10 11
4 4 6 8 8 9 10 11 11 11 11 11 11 10 10 10 10 10 10 10 10 10 10 10 10 9 10 10 10 9 9 9 8 6 5 5 5 7 9 9 9 10 10
3 3 5 7 8 9 10 11 11 11 11 10 10 10 9 9 9 9 9 9 8 8 8 8 8 8 8 9 8 8 8 8 7 5 5 5 6 8 9 9 9 9 9
3 2 4 7 8 10 11 11 11 10 11 9 9 8 8 7 7 8 8 8 7 7 7 8 7 7 7 7 7 7 7 7 6 6 5 6 6 8 9 9 9 9 9
4 3 3 6 8 10 10 10 10 10 9 8 7 7 7 6 6 6 6 6 6 6 6 6 6 6 6 6 5 5 6 6 5 5 5 6 7 8 8 8 8 8 8
4 3 2 3 6 7 8 9 9 8 8 7 6 6 6 5 5 5 4 4 5 5 5 5 5 5 5 4 4 4 5 5 5 4 4 5 7 8 8 8 8 8 8
3 2 1 2 3 4 5 6 7 7 7 7 5 5 5 4 4 3 3 3 4 4 4 4 4 4 3 3 3 3 4 4 4 4 3 5 8 9 8 8 8 8 8
3 2 2 1 2 2 3 5 6 6 6 6 5 5 4 3 3 2 2 2 2 3 3 3 3 2 2 2 2 3 4 4 4 3 3 5 7 9 9 8 8 8 8
3 2 2 2 2 2 3 4 3 4 4 4 4 4 4 3 3 3 3 3 2 2 2 2 2 2 2 1 1 3 3 4 3 3 4 6 7 8 9 9 9 8 8
5 4 3 2 2 3 2 3 3 3 3 3 3 3 3 3 3 3 2 2 2 2 2 1 2 1 1 1 1 2 3 3 3 3 4 6 8 9 9 9 9 9 9
5 4 4 3 3 3 2 2 3 2 2 2 2 2 2 1 1 1 1 1 2 1 2 1 1 1 1 1 1 1 2 2 3 3 4 6 7 8 8 9 9 9 9
5 5 4 4 4 3 3 2 3 2 2 2 2 2 2 1 1 1 1 1 1 1 1 1 1 1 1 1 1 1 1 2 2 3 3 5 7 8 8 8 8 8 9
6 5 5 5 4 4 4 3 2 2 2 2 2 2 2 2 1 1 1 1 0 0 1 1 1 1 0 0 0 0 1 2 2 2 2 3 5 7 8 8 8 9 9
6 5 5 6 5 5 4 4 3 3 3 2 1 2 2 2 2 1 1 0 0 0 1 1 1 1 1 1 1 0 1 1 2 2 2 2 3 5 7 8 8 9 9
6 6 6 6 6 5 4 4 3 2 2 2 1 1 2 2 2 2 1 0 0 1 1 1 1 1 1 1 1 0 0 0 1 1 1 2 3 3 5 7 8 8 9
7 7 6 5 6 5 4 3 3 2 2 1 1 1 1 2 2 2 1 0 1 1 1 1 1 1 1 1 1 0 0 0 0 1 1 2 2 2 3 5 7 7 8
6 6 6 5 5 5 4 3 2 2 1 1 1 1 1 1 2 2 1 1 1 1 1 1 2 2 1 1 1 1 1 1 0 0 1 1 1 2 2 3 4 5 7
6 6 6 6 5 5 3 3 2 1 1 1 1 1 1 1 2 2 1 1 1 1 1 1 1 2 2 1 2 2 2 2 1 0 0 1 0 1 2 2 3 3 4
7 6 6 6 6 5 4 3 2 2 1 1 0 1 1 1 1 1 2 1 1 1 1 1 2 1 1 1 1 1 2 3 2 1 0 0 0 0 1 2 2 3 3
7 7 7 6 6 5 5 4 3 2 2 1 1 1 1 1 1 1 1 1 1 1 1 1 2 2 1 1 1 2 1 1 2 2 1 1 1 0 1 1 1 2 3
7 6 6 6 6 5 5 5 5 4 3 2 1 1 1 1 1 1 1 1 1 1 1 1 1 1 2 1 1 1 1 2 1 1 2 2 2 1 2 2 2 2 2
6 6 5 5 5 5 5 6 5 4 3 2 1 1 0 1 1 0 1 1 1 1 1 1 1 1 1 2 1 1 1 1 1 1 2 3 2 2 2 2 2 2 3
6 6 5 6 5 5 6 6 6 6 5 4 2 2 1 0 0 0 1 1 1 1 1 1 1 2 1 1 1 1 1 1 1 1 2 2 2 3 2 1 1 2 2
Wind_Direction
190 167 144 135 131 128 125 120 118 119 120 122 126 129 131 133 135 137 138 139 139 141 138 136 137 138 141 142 141 140 141 142 143 144 146 150 149 147 144 140 136 136 140
161 157 149 142 134 131 127 124 121 119 121 124 127 130 133 135 136 138 138 139 140 142 142 142 143 143 144 143 143 142 143 145 148 148 148 150 149 153 151 145 143 144 146
140 151 152 146 137 134 133 129 124 123 123 125 127 130 133 135 137 138 138 139 140 141 143 144 146 145 144 143 143 144 143 144 150 154 151 147 149 156 154 154 155 150 152
141 148 153 150 146 142 138 132 127 128 127 127 127 129 133 137 137 136 135 137 139 141 146 148 148 148 146 143 143 144 143 140 143 148 145 147 158 162 159 161 159 157 158
134 148 159 154 153 150 145 137 132 131 132 130 129 130 131 135 139 139 139 140 142 145 147 149 151 151 153 152 149 147 148 147 149 153 148 149 157 164 162 162 162 162 163
135 145 160 152 148 148 146 141 137 136 136 135 134 134 135 136 139 143 143 144 145 146 146 148 153 156 158 158 156 154 153 152 152 149 151 157 165 174 169 164 164 166 167
138 143 159 143 144 144 143 141 138 139 138 137 136 136 137 138 142 145 146 148 148 148 147 151 155 159 160 161 160 158 156 159 155 154 158 169 176 178 173 168 168 171 174
139 131 144 139 137 137 140 141 140 138 138 140 137 136 137 139 141 148 150 148 153 153 155 162 161 160 159 162 163 161 163 166 163 165 166 174 177 177 173 166 164 165 167
120 111 108 131 138 142 142 140 140 137 137 138 137 135 136 137 137 138 141 148 156 161 163 165 163 160 166 171 171 166 164 166 157 155 161 166 177 177 177 173 171 167 165
106 108 96 104 123 140 146 143 140 134 134 133 134 132 130 122 119 119 133 149 157 155 156 156 160 160 163 171 177 164 156 149 141 148 154 171 178 183 183 179 178 178 175
126 108 110 102 103 124 135 140 133 129 127 124 126 122 112 104 96 95 121 143 156 153 156 152 153 151 141 140 144 141 136 134 141 154 171 182 183 186 186 185 185 184 181
169 158 134 125 111 108 133 116 108 114 114 112 112 106 101 93 83 78 105 116 113 119 133 137 114 107 120 102 101 110 114 134 145 169 184 189 188 189 193 194 193 193 190
176 166 156 151 126 122 115 114 107 101 100 93 90 99 104 89 68 52 53 52 53 71 68 72 63 72 104 103 88 101 129 143 161 180 194 204 202 197 198 201 199 201 197
164 169 162 151 137 139 131 120 114 112 111 108 112 120 117 99 65 44 42 31 42 61 66 63 74 72 88 94 118 132 148 166 177 187 203 208 207 202 204 207 206 206 204
172 175 167 159 156 154 138 135 128 123 126 141 141 136 143 133 103 67 27 48 53 63 83 81 75 62 70 81 133 159 172 182 188 197 215 214 208 202 203 205 209 210 208
181 176 165 163 162 151 147 142 147 140 138 136 146 158 160 158 132 105 66 53 41 51 113 115 89 69 49 85 75 108 183 191 205 211 221 218 212 205 206 210 212 215 213
182 174 170 170 159 154 156 157 150 150 148 141 161 161 158 164 162 148 118 69 9 178 97 87 68 75 74 81 89 118 173 192 207 221 228 216 218 216 216 216 216 216 218
172 171 178 173 157 156 157 153 147 144 139 148 167 155 157 170 174 153 125 124 167 114 98 92 73 80 65 74 73 345 337 186 210 200 198 208 217 228 223 221 222 222 224
175 170 167 161 154 155 150 136 135 125 128 141 143 150 167 180 177 153 158 168 121 100 83 75 74 102 96 62 69 33 12 207 235 170 173 202 212 222 229 228 226 228 230
167 162 158 154 150 143 133 117 105 95 108 115 128 175 175 181 178 155 143 111 108 93 63 70 80 77 95 66 62 33 11 359 47 120 186 164 180 205 225 239 235 236 236
162 159 161 161 158 147 139 141 140 155 154 143 164 133 140 153 168 146 141 117 113 120 138 127 111 87 70 81 77 29 16 34 56 63 97 117 163 201 206 229 239 241 244
172 169 166 171 168 167 164 153 145 139 142 158 188 54 69 105 155 154 157 156 136 132 105 123 139 130 89 88 109 74 7 5 13 22 47 128 158 186 211 225 226 239 243
174 179 181 180 173 168 157 133 116 88 60 43 13 351 357 68 122 130 145 150 145 150 164 183 168 155 164 71 98 131 141 242 318 352 4 2 356 284 265 254 235 244 239
185 179 173 173 168 164 157 155 154 159 177 205 201 220 344 42 82 118 133 148 147 145 166 205 169 163 158 164 105 103 156 164 174 323 339 343 340 316 289 277 277 258 250
177 171 165 159 165 163 163 167 162 167 180 167 134 126 62 5 20 74 126 136 154 169 182 180 147 150 161 162 157 150 116 82 149 186 282 321 339 327 307 285 282 280 268
168 166 161 159 169 168 168 171 173 175 170 159 165 178 204 252 334 16 130 144 157 162 170 175 154 135 141 146 149 147 156 168 192 190 232 287 310 321 325 313 301 291 281
Height
1492 1492 1492 1493 1493 1494 1495 1496 1497 1498 1499 1501 1502 1504 1505 1506 1507 1509 1510 1511 1512 1513 1515 1516 1517 1518 1521 1523 1525 1527 1528 1530 1532 1534 1535 1537 1538 1539 1540 1541 1543 1544 1545
1492 1492 1493 1493 1494 1494 1496 1497 1498 1500 1501 1503 1504 1505 1507 1508 1509 1510 1511 1512 1513 1515 1516 1518 1519 1521 1522 1524 1526 1527 1529 1531 1532 1534 1535 1537 1538 1540 1541 1542 1543 1544 1546
1492 1492 1493 1493 1494 1495 1496 1498 1499 1501 1503 1504 1506 1507 1508 1509 1510 1511 1513 1514 1515 1516 1518 1519 1520 1522 1524 1525 1527 1528 1530 1531 1533 1534 1536 1537 1539 1540 1541 1542 1543 1545 1546
1493 1493 1493 1493 1493 1494 1496 1498 1500 1502 1504 1506 1507 1508 1510 1511 1512 1513 1514 1515 1516 1517 1519 1520 1522 1523 1525 1526 1527 1529 1530 1532 1533 1535 1536 1537 1539 1540 1541 1542 1544 1545 1546
1494 1494 1493 1492 1492 1493 1495 1499 1501 1504 1506 1507 1509 1510 1511 1512 1513 1514 1515 1516 1518 1519 1520 1521 1523 1524 1525 1527 1528 1529 1531 1532 1534 1535 1536 1538 1539 1540 1541 1542 1544 1545 1546
1495 1495 1494 1492 1491 1492 1495 1499 1502 1505 1507 1509 1510 1511 1512 1513 1514 1515 1516 1518 1519 1520 1521 1522 1523 1525 1526 1527 1528 1530 1531 1533 1534 1535 1537 1538 1539 1540 1541 1542 1544 1545 1546
1497 1497 1495 1493 1492 1494 1497 1501 1504 1507 1509 1511 1512 1513 1514 1515 1515 1516 1517 1518 1519 1521 1522 1523 1524 1525 1526 1527 1529 1530 1531 1533 1534 1535 1536 1538 1539 1540 1541 1542 1543 1545 1545
1500 1499 1499 1498 1497 1499 1502 1505 1507 1509 1511 1512 1514 1514 1515 1515 1516 1517 1518 1519 1520 1521 1522 1523 1524 1526 1527 1528 1529 1530 1531 1533 1534 1535 1536 1537 1538 1540 1541 1542 1543 1544 1545
1502 1502 1502 1502 1503 1504 1506 1508 1510 1511 1513 1514 1515 1516 1516 1516 1517 1517 1518 1519 1520 1521 1522 1524 1525 1526 1527 1528 1529 1530 1531 1533 1534 1535 1536 1537 1538 1539 1540 1541 1543 1544 1545
1505 1505 1505 1506 1507 1508 1510 1511 1512 1514 1515 1516 1516 1517 1517 1517 1517 1517 1517 1519 1520 1521 1522 1524 1525 1526 1528 1529 1530 1531 1531 1533 1534 1535 1536 1537 1538 1539 1540 1541 1542 1543 1544
1506 1507 1508 1509 1510 1511 1512 1513 1515 1516 1517 1518 1518 1518 1518 1518 1517 1517 1517 1518 1520 1521 1523 1524 1525 1527 1528 1529 1530 1531 1532 1533 1534 1535 1536 1537 1537 1538 1539 1540 1541 1542 1544
1507 1509 1510 1511 1512 1513 1514 1515 1517 1518 1518 1519 1519 1520 1519 1519 1518 1517 1517 1518 1520 1522 1523 1524 1525 1527 1528 1529 1530 1531 1531 1533 1534 1535 1536 1536 1537 1537 1538 1539 1540 1541 1543
1509 1510 1511 1512 1514 1515 1516 1517 1518 1519 1520 1521 1521 1521 1521 1521 1520 1519 1519 1520 1521 1522 1523 1525 1526 1527 1528 1529 1529 1530 1531 1532 1533 1534 1535 1536 1536 1537 1538 1538 1539 1540 1542
1510 1511 1512 1514 1515 1516 1518 1519 1520 1521 1521 1522 1522 1523 1522 1522 1522 1521 1521 1522 1523 1523 1524 1525 1526 1527 1528 1529 1529 1530 1531 1532 1533 1534 1534 1535 1535 1536 1537 1538 1538 1539 1540
1511 1512 1513 1515 1516 1518 1519 1520 1521 1522 1522 1523 1523 1524 1524 1523 1523 1523 1523 1523 1524 1524 1525 1525 1526 1527 1528 1529 1529 1530 1531 1532 1532 1533 1533 1534 1534 1535 1536 1537 1537 1538 1539
1511 1513 1514 1516 1517 1518 1519 1520 1521 1522 1523 1524 1524 1525 1525 1524 1524 1524 1524 1524 1525 1525 1525 1526 1527 1527 1528 1529 1529 1530 1531 1531 1532 1533 1533 1533 1534 1535 1536 1536 1536 1537 1538
1511 1513 1515 1516 1518 1519 1520 1521 1522 1523 1523 1524 1525 1525 1525 1525 1525 1525 1525 1525 1526 1526 1526 1526 1527 1527 1528 1529 1529 1530 1531 1531 1532 1532 1532 1533 1533 1534 1535 1535 1536 1537 1537
1511 1513 1515 1516 1518 1519 1520 1521 1522 1523 1524 1524 1525 1526 1526 1526 1526 1526 1526 1526 1526 1526 1526 1526 1527 1527 1528 1528 1529 1530 1530 1531 1531 1531 1532 1532 1533 1533 1534 1534 1535 1536 1536
1511 1513 1515 1516 1518 1519 1521 1522 1523 1523 1524 1525 1525 1526 1526 1526 1526 1526 1526 1526 1526 1526 1526 1526 1526 1527 1527 1528 1529 1529 1530 1530 1530 1531 1531 1531 1532 1532 1533 1533 1534 1534 1535
1511 1513 1515 1516 1518 1519 1521 1522 1522 1523 1524 1525 1525 1526 1526 1526 1526 1526 1526 1526 1526 1526 1526 1526 1526 1527 1527 1528 1528 1529 1529 1529 1530 1530 1530 1531 1531 1531 1532 1532 1533 1533 1534
1510 1512 1514 1515 1517 1519 1520 1521 1522 1522 1523 1524 1525 1526 1526 1526 1526 1527 1527 1526 1527 1526 1526 1526 1526 1526 1527 1527 1528 1528 1528 1528 1528 1529 1529 1530 1530 1530 1531 1531 1531 1532 1532
1509 1511 1513 1514 1516 1518 1519 1521 1522 1522 1523 1524 1525 1525 1526 1526 1526 1526 1526 1526 1526 1526 1526 1526 1526 1526 1527 1527 1527 1527 1528 1529 1528 1528 1528 1529 1529 1529 1530 1530 1530 1530 1530
1508 1510 1512 1514 1515 1517 1518 1520 1521 1522 1523 1523 1524 1524 1525 1525 1526 1526 1526 1526 1526 1526 1526 1526 1526 1526 1526 1527 1527 1528 1527 1527 1527 1527 1527 1528 1528 1528 1528 1529 1529 1529 1529
1506 1509 1511 1513 1515 1516 1517 1518 1519 1520 1521 1522 1523 1524 1524 1525 1525 1525 1526 1526 1526 1526 1526 1526 1526 1526 1526 1526 1526 1526 1527 1526 1526 1526 1527 1527 1527 1527 1527 1527 1527 1527 1527
1505 1508 1510 1512 1513 1515 1516 1517 1518 1519 1520 1521 1522 1523 1523 1524 1524 1525 1525 1525 1525 1525 1525 1525 1525 1525 1525 1525 1525 1525 1525 1525 1525 1525 1525 1525 1525 1526 1526 1526 1526 1526 1526
1504 1506 1508 1510 1511 1513 1514 1515 1517 1517 1519 1520 1521 1521 1522 1522 1523 1523 1524 1524 1524 1524 1524 1524 1524 1525 1524 1524 1524 1524 1524 1524 1524 1524 1524 1523 1523 1524 1524 1524 1524 1524 1524